Location: Arroyo Grande
(40.2671°N, 4.2512°W)
Time: 19:12:50
(UTC+00:00)

MINOTAUR 4 R/B - Pass Details

Date: 03 February 2023
Orbit: 448 x 453 km, 98.0° (Epoch: 22 March)

Event Time Altitude Azimuth Distance (km) Brightness Sun altitude
Exits shadow 18:50:58 12° 24° (NNE) 1,465 6.2 -14.3°
Maximum altitude 18:53:59 51° 101° (E) 569 4.0 -14.9°
Drops below altitude 10° 18:57:16 10° 178° (S) 1,569 6.7 -15.5°
Sets 18:59:19 0° 184° (S) 2,436 7.8 -15.9°
